Hourly Data Report for October 26, 2014

All times are specified in Local Standard Time (LST). Add 1 hour to adjust for Daylight Saving Time where and when it is observed.

KITCHENER/WATERLOO
ONTARIO

43°27'39.000" N
80°22'43.000" W
321.60 m
6144239
71368
YKF

Download Data

Hourly Data (October 2014)
Hourly Data Report for October 26, 2014
Temp Definition
°C
Dew Point Temp Definition
°C
Rel Hum Definition
%
Wind Dir Definition
10's deg

Wind Spd Definition
km/h
Visibility Definition
km
Stn Press Definition
kPa
Hmdx Definition


Wind Chill Definition


Weather Definition


TIME
00:00 Legend Double Dagger 7.4 3.8 78 28 28 16.1 96.66     LegendNANA
01:00 Legend Double Dagger 7.5 2.4 70 28 26 16.1 96.66     LegendNANA
02:00 Legend Double Dagger 7.5 1.6 66 29 28 16.1 96.69     LegendNANA
03:00 Legend Double Dagger 7.6 1.8 66 29 32 16.1 96.65     LegendNANA
04:00 Legend Double Dagger 8.3 2.2 65 30 30 16.1 96.71     LegendNANA
05:00 Legend Double Dagger 8.4 2.4 66 29 37 16.1 96.74     LegendNANA
06:00 Legend Double Dagger 8.3 2.4 66 30 35 16.1 96.79     LegendNANA
07:00 Legend Double Dagger 7.8 2.5 69 30 37 16.1 96.83     LegendNANA
08:00 Legend Double Dagger 8.2 3.0 70 30 30 16.1 96.91     LegendNANA
09:00 Legend Double Dagger 8.5 3.5 71 30 28 16.1 96.98     LegendNANA
10:00 Legend Double Dagger 8.5 3.7 72 30 32 16.1 97.05     LegendNANA
11:00 Legend Double Dagger 8.5 3.6 71 29 34 16.1 97.13     LegendNANA
12:00 Legend Double Dagger 8.5 3.8 72 30 30 16.1 97.13     LegendNANA
13:00 Legend Double Dagger 8.9 3.4 68 30 30 16.1 97.15     LegendNANA
14:00 Legend Double Dagger 8.6 3.0 68 30 18 16.1 97.19     LegendNANA
15:00 Legend Double Dagger 8.4 2.3 65 30 28 16.1 97.25     LegendNANA
16:00 Legend Double Dagger 8.4 2.8 68 29 26 16.1 97.32     LegendNANA
17:00 Legend Double Dagger 7.3 2.0 69 29 22 16.1 97.35     LegendNANA
18:00 Legend Double Dagger 5.7 1.8 76 26 5 16.1 97.41     LegendNANA
19:00 Legend Double Dagger 2.7 1.3 90 LegendMM 4 16.1 97.45     LegendNANA
20:00 Legend Double Dagger 0.5 -0.5 93   0 16.1 97.49     LegendNANA
21:00 Legend Double Dagger 1.1 0.5 96   0 16.1 97.52     LegendNANA
22:00 Legend Double Dagger 0.3 0.0 98 25 4 4.8 97.54     Fog
23:00 Legend Double Dagger -0.1 -0.2 99 28 5 14.5 97.54   -2 LegendNANA

Notes on Data Quality.

Legend

  • E = Estimated
  • M = Missing
  • NA = Not Available
  • ‡ = Partner data that is not subject to review by the National Climate Archives
Date modified: